EW7138 Weather Reports


time (UTC)temp
C
wind
direction
speed
KPH
gust
KPH
rain 1hr
cm
rain 24hr
cm
rain mn
cm
humidity
%
barometer
mb
20260506232406 24 307 3.2 12.9 0.00 0.00 0.00 66 1014.4
20260506231904 23 349 1.6 16.1 0.00 0.00 0.00 67 1014.5
20260506231404 23 314 1.6 16.1 0.00 0.00 0.00 66 1014.5
20260506230903 23 290 4.8 17.7 0.00 0.00 0.00 68 1014.5
20260506230401 23 339 4.8 17.7 0.00 0.00 0.00 68 1014.6
20260506225900 23 345 8.0 14.5 0.00 0.00 0.00 67 1014.8
20260506225400 23 36 3.2 16.1 0.00 0.00 0.00 67 1014.9
20260506224902 23 7 6.4 16.1 0.00 0.00 0.00 68 1014.7
20260506224358 23 342 11.3 16.1 0.00 0.00 0.00 67 1014.9
20260506223856 23 321 1.6 16.1 0.00 0.00 0.00 68 1015.0
20260506223356 23 52 8.0 14.5 0.00 0.00 0.00 67 1014.8
20260506222855 23 320 4.8 12.9 0.00 0.00 0.00 66 1015.0
20260506222357 23 327 3.2 14.5 0.00 0.00 0.00 67 1015.1
20260506222158 25 316 1.6 14.5 0.00 0.00 0.00 66 1014.9
20260506221859 23 337 4.8 14.5 0.00 0.00 0.00 66 1015.1
20260506220852 24 6 1.6 11.3 0.00 0.00 0.00 66 1015.1
20260506220349 24 289 3.2 11.3 0.00 0.00 0.00 64 1015.1
20260506215849 24 12 3.2 6.4 0.00 0.00 0.00 65 1015.3
20260506215805 24 39 3.2 11.3 0.00 0.00 0.00 65 1015.3
20260506215441 25 348 3.2 11.3 0.00 0.00 0.00 63 1015.4
20260506215359 23 72 3.2 9.7 0.00 0.00 0.00 65 1015.3
20260506213845 23 324 3.2 11.3 0.00 0.00 0.00 65 1015.6
20260506213344 23 68 3.2 14.5 0.00 0.00 0.00 68 1015.6
20260506212845 23 78 8.0 14.5 0.00 0.00 0.00 67 1015.6
20260506212341 23 355 9.7 12.9 0.00 0.00 0.00 65 1015.6
20260506211840 23 14 4.8 12.9 0.00 0.00 0.00 68 1015.9
20260506211340 23 354 3.2 11.3 0.00 0.00 0.00 67 1015.8
20260506210839 23 61 3.2 11.3 0.00 0.00 0.00 66 1015.8
20260506210342 23 59 1.6 16.1 0.00 0.00 0.00 67 1015.8
20260506205837 22 354 1.6 16.1 0.00 0.00 0.00 69 1016.0
20260506205335 23 35 4.8 12.9 0.00 0.00 0.00 69 1016.0
20260506205248 18 356 0.0 11.3 0.00 0.00 0.00 82 1017.3
20260506205201 12 345 0.0 0.0 0.00 0.00 0.00 99 1016.6
20260506205152 11 349 0.0 0.0 0.00 0.00 0.00 99 1016.1
20260506205135 13 351 0.0 0.0 0.00 0.03 0.00 97 1015.8
20260506204834 23 349 3.2 11.3 0.00 0.00 0.00 68 1015.8
20260506204334 24 32 3.2 11.3 0.00 0.00 0.00 67 1016.1
20260506203837 22 53 1.6 12.9 0.00 0.00 0.00 65 1016.1
20260506203423 23 63 6.4 12.9 0.00 0.00 0.00 67 1016.2
20260506202950 15 306 0.0 6.4 0.00 0.03 0.03 90 1013.8
20260506202831 23 354 1.6 9.7 0.00 0.00 0.00 65 1016.4
20260506202331 22 131 4.8 12.9 0.00 0.00 0.00 70 1016.3
20260506201829 22 336 1.6 12.9 0.00 0.00 0.00 71 1016.2
20260506201428 22 49 4.8 11.3 0.00 0.00 0.00 71 1016.4
20260506201334 22 293 6.4 11.3 0.00 0.00 0.00 70 1016.4
20260506200325 22 31 3.2 9.7 0.00 0.00 0.00 70 1016.4
20260506195825 21 4 1.6 17.7 0.00 0.00 0.00 72 1016.7
20260506195324 21 47 8.0 14.5 0.00 0.00 0.00 74 1016.7
20260506194822 21 24 6.4 12.9 0.00 0.00 0.00 73 1016.7
20260506194323 21 102 3.2 12.9 0.00 0.00 0.00 75 1016.4
20260506194309 21 7 4.8 9.7 0.00 0.00 0.00 74 1016.8
20260506193830 21 10 3.2 12.9 0.00 0.00 0.00 75 1016.5
20260506192820 21 1 3.2 9.7 0.00 0.00 0.00 74 1016.7
20260506192646 21 7 3.2 9.7 0.00 0.00 0.00 73 1016.8
20260506192340 21 357 3.2 9.7 0.00 0.00 0.00 73 1016.8
20260506191316 21 325 3.2 9.7 0.00 0.00 0.00 76 1016.8
20260506190940 20 11 3.2 11.3 0.00 0.00 0.00 77 1017.1
20260506190824 20 354 3.2 11.3 0.00 0.00 0.00 75 1017.0
20260506185812 20 15 3.2 11.3 0.00 0.00 0.00 77 1017.0
20260506185316 20 333 3.2 9.7 0.00 0.00 0.00 75 1017.1
20260506184811 20 9 4.8 4.8 0.00 0.00 0.00 73 1017.0
20260506184310 20 355 1.6 11.3 0.00 0.00 0.00 74 1017.2
20260506183811 20 347 1.6 11.3 0.00 0.00 0.00 75 1017.2
20260506183802 20 332 1.6 9.7 0.00 0.00 0.00 73 1017.2
20260506183403 20 346 3.2 6.4 0.00 0.00 0.00 74 1017.1
20260506182309 20 341 0.0 9.7 0.00 0.00 0.00 75 1017.2
20260506182249 15 288 1.6 12.9 0.00 0.03 0.03 86 1013.1
20260506181807 19 345 3.2 6.4 0.00 0.00 0.00 77 1017.4
20260506181307 20 333 6.4 6.4 0.00 0.00 0.00 75 1017.3
20260506180806 19 328 3.2 4.8 0.00 0.00 0.00 75 1017.3
20260506180304 17 340 0.0 6.4 0.00 0.00 0.00 78 1017.2
20260506175803 17 327 1.6 9.7 0.00 0.00 0.00 81 1017.4
20260506175306 19 339 3.2 9.7 0.00 0.00 0.00 80 1017.3
20260506174906 19 347 1.6 3.2 0.00 0.00 0.00 76 1017.3
20260506174309 18 353 1.6 11.3 0.00 0.00 0.00 79 1017.4
20260506173300 17 352 3.2 4.8 0.00 0.00 0.00 80 1017.4
20260506172759 17 342 3.2 4.8 0.00 0.00 0.00 81 1017.4
20260506172257 18 342 1.6 4.8 0.00 0.00 0.00 81 1017.6
20260506172136 18 344 1.6 9.7 0.00 0.00 0.00 82 1017.4
20260506171803 17 344 0.0 9.7 0.00 0.00 0.00 81 1017.5
20260506170759 17 351 3.2 9.7 0.00 0.00 0.00 83 1017.4
20260506170253 17 347 0.0 9.7 0.00 0.00 0.00 84 1017.6
20260506165752 17 346 1.6 9.7 0.00 0.00 0.00 82 1017.4
20260506165251 17 350 0.0 9.7 0.00 0.00 0.00 83 1017.5
20260506164750 17 347 1.6 3.2 0.00 0.00 0.00 84 1017.4
20260506164643 16 346 0.0 4.8 0.00 0.00 0.00 85 1017.6
20260506164248 16 347 0.0 3.2 0.00 0.00 0.00 85 1017.7
20260506163759 17 347 0.0 4.8 0.00 0.00 0.00 85 1017.6
20260506162745 16 347 0.0 3.2 0.00 0.00 0.00 86 1017.5
20260506162244 16 342 0.0 3.2 0.00 0.00 0.00 88 1017.4
20260506161744 16 347 1.6 3.2 0.00 0.00 0.00 88 1017.4
20260506161720 15 350 0.0 0.0 0.00 0.00 0.00 91 1017.6
20260506161346 15 347 0.0 0.0 0.00 0.00 0.00 91 1017.6
20260506161242 15 348 0.0 0.0 0.00 0.00 0.00 89 1017.6
20260506160801 15 346 0.0 0.0 0.00 0.00 0.00 90 1017.5
20260506155238 15 347 0.0 0.0 0.00 0.00 0.00 92 1017.5
20260506154738 15 349 0.0 0.0 0.00 0.00 0.00 92 1017.6
20260506154237 15 347 0.0 0.0 0.00 0.00 0.00 92 1017.6
20260506153732 15 347 0.0 0.0 0.00 0.00 0.00 92 1017.4
20260506153232 15 347 0.0 0.0 0.00 0.00 0.00 93 1017.4
20260506152730 14 346 0.0 0.0 0.00 0.00 0.00 93 1017.5
20260506152233 14 347 0.0 0.0 0.00 0.00 0.00 93 1017.6
20260506151848 13 346 0.0 0.0 0.00 0.00 0.00 96 1017.5
20260506151728 14 346 0.0 0.0 0.00 0.00 0.00 95 1017.5
20260506151228 14 346 0.0 0.0 0.00 0.00 0.00 95 1017.5
20260506150726 13 345 0.0 0.0 0.00 0.00 0.00 95 1017.5
20260506150234 13 345 0.0 0.0 0.00 0.00 0.00 95 1017.6
20260506145432 13 346 0.0 0.0 0.00 0.00 0.00 97 1017.4
20260506145223 13 346 0.0 0.0 0.00 0.00 0.00 96 1017.7
20260506144723 13 346 0.0 0.0 0.00 0.00 0.00 96 1017.5
20260506144221 13 346 0.0 0.0 0.00 0.00 0.00 97 1017.6
20260506143729 13 345 0.0 0.0 0.00 0.00 0.00 97 1017.6
20260506143052 13 347 0.0 0.0 0.00 0.00 0.00 99 1017.4
20260506142720 13 346 0.0 0.0 0.00 0.00 0.00 98 1017.4
20260506142217 13 347 0.0 0.0 0.00 0.00 0.00 98 1017.3
20260506141716 13 346 0.0 0.0 0.00 0.00 0.00 98 1017.5
20260506141224 13 346 0.0 0.0 0.00 0.00 0.00 98 1017.3
20260506140215 12 347 0.0 0.0 0.00 0.00 0.00 99 1017.2
20260506135715 12 346 0.0 0.0 0.00 0.00 0.00 99 1017.2
20260506135251 12 347 0.0 0.0 0.00 0.00 0.00 99 1016.6
20260506135211 12 344 0.0 0.0 0.00 0.00 0.00 99 1017.1
20260506134710 12 347 0.0 0.0 0.00 0.00 0.00 99 1017.1
20260506134209 12 346 0.0 0.0 0.00 0.00 0.00 99 1016.9
20260506133855 12 346 0.0 0.0 0.00 0.00 0.00 99 1016.7
20260506133208 12 346 0.0 0.0 0.00 0.00 0.00 99 1016.8
20260506132844 12 350 0.0 0.0 0.00 0.00 0.00 99 1016.5
20260506132714 12 346 0.0 0.0 0.00 0.00 0.00 99 1016.7
20260506131705 12 347 0.0 0.0 0.00 0.00 0.00 99 1016.5
20260506131209 12 346 0.0 0.0 0.00 0.00 0.00 99 1016.5
20260506130647 12 348 0.0 0.0 0.00 0.00 0.00 99 1016.4
20260506130208 12 348 0.0 0.0 0.00 0.00 0.00 99 1016.7
20260506125200 12 348 0.0 0.0 0.00 0.00 0.00 99 1016.4
20260506124702 12 348 0.0 0.0 0.00 0.00 0.00 99 1016.3
20260506123656 12 349 0.0 0.0 0.00 0.00 0.00 99 1016.4
20260506123443 11 349 0.0 0.0 0.00 0.00 0.00 99 1016.3
20260506123155 11 349 0.0 0.0 0.00 0.00 0.00 99 1016.4
20260506122654 11 349 0.0 0.0 0.00 0.00 0.00 99 1016.4
20260506122342 11 350 0.0 0.0 0.00 0.00 0.00 99 1016.2
20260506122153 11 349 0.0 0.0 0.00 0.00 0.00 99 1016.3
20260506121701 11 349 0.0 0.0 0.00 0.00 0.00 99 1016.4
20260506121042 11 349 0.0 0.0 0.00 0.00 0.00 99 1016.1
20260506120655 11 349 0.0 0.0 0.00 0.00 0.00 99 1016.2
20260506120353 11 350 0.0 0.0 0.00 0.00 0.00 99 1016.1
20260506115158 11 350 0.0 0.0 0.00 0.00 0.00 99 1016.1
20260506113645 11 351 0.0 0.0 0.00 0.00 0.00 99 1016.0
20260506113143 11 351 0.0 0.0 0.00 0.00 0.00 99 1016.0
20260506113053 11 351 0.0 0.0 0.00 0.00 0.00 99 1016.0
20260506112645 11 351 0.0 0.0 0.00 0.00 0.00 99 1015.9
20260506111640 11 351 0.0 0.0 0.00 0.00 0.00 99 1016.0
20260506111140 11 351 0.0 0.0 0.00 0.00 0.00 99 1016.1
20260506110638 11 351 0.0 0.0 0.00 0.00 0.00 99 1015.9
20260506110415 11 351 0.0 0.0 0.00 0.03 0.00 99 1016.0
20260506110138 11 351 0.0 0.0 0.00 0.03 0.00 99 1015.9
20260506105640 11 351 0.0 0.0 0.00 0.03 0.00 99 1016.0
20260506104635 11 351 0.0 0.0 0.00 0.03 0.00 99 1015.9
20260506104424 11 351 0.0 0.0 0.00 0.03 0.00 99 1015.8
20260506104134 11 351 0.0 0.0 0.00 0.03 0.00 99 1015.8
20260506103634 11 351 0.0 0.0 0.00 0.03 0.00 99 1015.8
20260506102630 12 351 0.0 0.0 0.00 0.03 0.00 99 1015.9
20260506102129 12 351 0.0 0.0 0.00 0.03 0.00 99 1015.8
20260506101627 12 351 0.0 0.0 0.00 0.03 0.00 98 1015.8
20260506101128 12 351 0.0 0.0 0.00 0.03 0.00 98 1015.8
20260506100800 12 351 0.0 0.0 0.00 0.03 0.00 98 1016.0
20260506100125 13 351 0.0 0.0 0.00 0.03 0.00 98 1016.0
20260506095636 13 351 0.0 0.0 0.00 0.03 0.00 98 1016.0
20260506094731 13 350 0.0 0.0 0.00 0.03 0.00 97 1016.0
20260506094623 13 351 0.0 0.0 0.00 0.03 0.00 97 1015.8
20260506094137 13 349 0.0 0.0 0.00 0.03 0.00 97 1015.6
20260506093120 13 350 0.0 0.0 0.00 0.03 0.00 97 1015.7
20260506092618 13 350 0.0 0.0 0.00 0.03 0.00 97 1015.9
20260506092117 13 350 0.0 0.0 0.00 0.03 0.00 97 1015.8
20260506091617 13 351 0.0 0.0 0.00 0.03 0.00 97 1015.9
20260506091116 13 351 0.0 0.0 0.00 0.03 0.00 97 1015.8
20260506090615 13 351 0.0 0.0 0.00 0.03 0.00 97 1015.7
20260506090114 13 351 0.0 0.0 0.00 0.03 0.00 96 1015.5
20260506085613 13 351 0.0 0.0 0.00 0.03 0.00 96 1015.7
20260506085112 13 351 0.0 1.6 0.00 0.03 0.00 96 1015.8
20260506084739 13 350 0.0 3.2 0.00 0.03 0.00 96 1016.1
20260506084615 13 351 0.0 1.6 0.00 0.03 0.00 96 1015.7
20260506084329 13 351 0.0 1.6 0.00 0.03 0.00 96 1016.0
20260506084110 13 351 0.0 1.6 0.00 0.03 0.00 96 1015.8
20260506083610 13 351 0.0 1.6 0.00 0.03 0.00 96 1015.8
20260506083137 13 351 0.0 3.2 0.00 0.03 0.00 96 1015.9
20260506081604 13 351 0.0 1.6 0.00 0.03 0.00 96 1015.9
20260506081104 13 353 0.0 1.6 0.00 0.03 0.00 95 1015.9
20260506080603 13 352 0.0 3.2 0.00 0.03 0.00 95 1015.8
20260506073057 13 351 0.0 3.2 0.00 0.03 0.00 95 1015.6
20260506073024 13 351 0.0 1.6 0.00 0.03 0.00 95 1015.3
20260506072556 13 351 0.0 3.2 0.00 0.03 0.00 95 1015.6
20260506072110 13 351 0.0 1.6 0.00 0.03 0.00 95 1015.4
20260506071052 13 351 0.0 1.6 0.00 0.03 0.00 95 1015.5
20260506070544 13 351 0.0 1.6 0.00 0.03 0.00 94 1015.5
20260506062030 14 331 0.0 3.2 0.00 0.03 0.03 91 1015.1
20260506061537 14 358 0.0 3.2 0.00 0.03 0.03 91 1015.1
20260506060557 14 308 0.0 4.8 0.00 0.03 0.03 91 1014.6
20260506060527 14 330 1.6 1.6 0.00 0.03 0.03 91 1015.0
20260506050621 14 307 0.0 4.8 0.00 0.03 0.03 91 1014.2
20260506050515 14 357 1.6 4.8 0.00 0.03 0.03 91 1014.4
20260506045011 14 255 0.0 3.2 0.00 0.03 0.03 91 1014.2
20260506044514 14 259 0.0 3.2 0.00 0.03 0.03 91 1014.3
20260506044017 14 4 0.0 4.8 0.00 0.03 0.03 91 1014.4
20260506043032 14 288 0.0 3.2 0.00 0.03 0.03 90 1014.2
20260506042511 14 272 0.0 3.2 0.00 0.03 0.03 91 1014.1
20260506042009 15 299 1.6 6.4 0.00 0.03 0.03 91 1014.1
20260506041510 15 334 0.0 6.4 0.00 0.03 0.03 90 1014.0
20260506041039 15 326 0.0 6.4 0.00 0.03 0.03 90 1013.9
20260506040507 15 285 0.0 6.4 0.00 0.03 0.03 90 1013.8
20260506035719 15 276 1.6 6.4 0.00 0.03 0.03 89 1013.4
20260506035500 15 322 1.6 6.4 0.00 0.03 0.03 90 1013.8
20260506035002 15 272 3.2 9.7 0.00 0.03 0.03 90 1013.6
20260506034939 15 284 1.6 6.4 0.00 0.03 0.03 88 1013.2
20260506034615 15 283 1.6 12.9 0.00 0.03 0.03 88 1013.3
20260506034517 15 271 3.2 9.7 0.00 0.03 0.03 90 1013.7
20260506033002 15 250 1.6 6.4 0.00 0.03 0.03 88 1013.5
20260506031452 15 249 6.4 12.9 0.00 0.03 0.03 87 1013.2
20260506031015 15 295 1.6 11.3 0.00 0.03 0.03 87 1013.2
20260506030458 15 323 0.0 12.9 0.00 0.03 0.03 86 1013.2
20260506025450 15 224 0.0 9.7 0.00 0.03 0.03 86 1013.1
20260506024948 15 171 1.6 9.7 0.00 0.03 0.03 86 1013.1
20260506024447 15 221 0.0 9.7 0.00 0.03 0.03 86 1012.9
20260506023946 15 218 3.2 6.4 0.00 0.03 0.03 86 1012.9
20260506023447 15 291 1.6 9.7 0.00 0.03 0.03 86 1012.8
20260506022947 15 243 4.8 9.7 0.00 0.03 0.03 86 1012.7
20260506022445 15 275 3.2 14.5 0.00 0.03 0.03 87 1012.8
20260506022402 16 237 6.4 11.3 0.00 0.03 0.03 86 1012.4
20260506021944 15 339 1.6 14.5 0.00 0.03 0.03 87 1012.8
20260506021444 15 95 1.6 9.7 0.00 0.03 0.03 86 1012.7
20260506020942 15 291 3.2 9.7 0.00 0.03 0.03 86 1012.7
20260506020442 15 234 0.0 9.7 0.00 0.03 0.03 86 1012.6
20260506015940 15 310 0.0 9.7 0.00 0.03 0.03 86 1012.8
20260506015440 15 299 3.2 12.9 0.00 0.03 0.03 86 1012.7
20260506014937 15 273 1.6 12.9 0.00 0.03 0.03 86 1012.9
20260506014803 15 182 1.6 11.3 0.00 0.03 0.03 86 1012.8
20260506014437 15 262 3.2 6.4 0.00 0.03 0.03 86 1013.0
20260506013943 15 249 4.8 9.7 0.00 0.03 0.03 86 1012.9
20260506012934 15 343 1.6 12.9 0.00 0.03 0.03 86 1012.7
20260506012751 16 267 6.4 9.7 0.00 0.03 0.03 86 1012.8
20260506012432 15 239 8.0 12.9 0.00 0.03 0.03 86 1012.8
20260506011936 15 301 3.2 11.3 0.00 0.03 0.03 86 1012.7
20260506010929 16 328 1.6 9.7 0.00 0.03 0.03 86 1012.6
20260506010426 16 235 3.2 9.7 0.00 0.03 0.03 86 1012.7
20260506010358 16 307 6.4 12.9 0.00 0.03 0.03 86 1012.5
20260506005924 16 236 1.6 12.9 0.00 0.03 0.03 86 1012.6
20260506005649 16 274 3.2 12.9 0.00 0.03 0.03 86 1012.5
20260506005428 16 223 1.6 12.9 0.00 0.03 0.03 86 1012.6
20260506004431 16 285 8.0 12.9 0.00 0.03 0.03 86 1012.6
20260506003445 16 244 4.8 12.9 0.00 0.03 0.03 86 1012.6
20260506002929 16 266 1.6 11.3 0.00 0.03 0.03 86 1012.4
20260506001917 16 276 4.8 9.7 0.00 0.03 0.03 86 1012.4
20260506001416 16 290 0.0 12.9 0.00 0.03 0.03 86 1012.4
20260506000915 16 324 1.6 12.9 0.00 0.03 0.03 86 1012.5
20260506000416 16 264 3.2 12.9 0.00 0.03 0.03 86 1012.3
20260506000255 16 277 1.6 9.7 0.00 0.03 0.03 85 1012.4
20260505235923 16 256 3.2 12.9 0.00 0.03 0.03 86 1012.3
20260505235009 16 224 0.0 3.2 0.00 0.03 0.03 82 1012.2
20260505234919 17 254 1.6 6.4 0.00 0.03 0.03 83 1012.1
20260505233908 16 176 0.0 4.8 0.00 0.03 0.03 83 1012.2
20260505233408 16 164 1.6 6.4 0.00 0.03 0.03 83 1012.4
20260505232951 17 150 3.2 6.4 0.00 0.03 0.03 82 1012.5
20260505232919 16 229 3.2 6.4 0.00 0.03 0.03 83 1012.3